Regional Weather Roundup
Issued by NWS

Home | Current Version | Previous Version | Text Only | Print | Product List | Glossary On
Versions: 1 2 3 4 5 6 7 8 9 10 11 12 13 14 15 16 17 18 19 20 21 22 23 24 25 26 27 28 29 30 31 32 33 34 35 36 37 38 39 40 41 42 43 44 45 46 47 48 49 50
000
ASUS43 KLSX 242010
RWRMO

WEATHER SUMMARY FOR MISSOURI
NATIONAL WEATHER SERVICE SPRINGFIELD MO
200 PM CST TUE JAN 24 2017

NOTE: "FAIR" INDICATES FEW OR NO CLOUDS BELOW 12,000 FEET WITH NO
       SIGNIFICANT WEATHER AND/OR OBSTRUCTIONS TO VISIBILITY.
       CURRENT SKY AND/OR WEATHER CONDITIONS ARE NOT AVAILABLE FOR
       CHILLICOTHE AND FARMINGTON.

MOZ001>031-035>038-043-044-053-054-242100-
...NORTHERN AND WESTERN MISSOURI...

CITY           SKY/WX    TMP DP  RH WIND       PRES   REMARKS
KANSAS CTY INT MOSUNNY   46  36  68 SE20G25   29.48F
KANSAS C DTWN  CLOUDY    49  37  63 E13G20    29.48F
LEE`S SUMMIT   MOSUNNY   49  39  68 E13       29.48F
ST JOSEPH      CLOUDY    42  36  79 E15       29.50F
CHILLICOTHE      N/A     40  34  79 E10G20    29.58F
KIRKSVILLE     CLOUDY    37  32  82 E16       29.66F WCI  28

$$
MOZ066>068-077>081-088>096-101>105-242100-
...SOUTHWEST MISSOURI...

CITY           SKY/WX    TMP DP  RH WIND       PRES   REMARKS
SPRINGFIELD    SUNNY     62  39  42 SE24G31   29.53F
JOPLIN         SUNNY     70  38  31 S24G35    29.48F
BRANSON        MOSUNNY   66  36  32 S16G22    29.60F

$$
MOZ032>034-039>042-045>050-055>058-069>072-242100-
...CENTRAL MISSOURI...

CITY           SKY/WX    TMP DP  RH WIND       PRES   REMARKS
COLUMBIA       PTSUNNY   47  38  71 E14       29.63F
JEFFERSON CITY PTSUNNY   50  37  61 E12G22    29.64F
ROLLA          LGT RAIN  52  36  54 SE23      29.63F
SEDALIA        MOSUNNY   53  40  61 SE23G30   29.55F
WARRENSBURG    CLOUDY    50  37  62 E12G22    29.50F
OSAGE BEACH    CLOUDY    52  38  58 SE14G23   29.61F

$$
MOZ051-052-059>065-242100-
...EAST CENTRAL MISSOURI...

CITY           SKY/WX    TMP DP  RH WIND       PRES   REMARKS
ST LOUIS INTL  CLOUDY    49  34  56 SE16      29.76F
SPIRIT OF STL  PTSUNNY   50  36  58 E12G20    29.72F
ST CHARLES     MOSUNNY   49  37  63 SE14      29.76F

$$
MOZ072>076-082>087-097>100-106>115-242100-
...SOUTH CENTRAL AND SOUTHEAST MISSOURI...

CITY           SKY/WX    TMP DP  RH WIND       PRES   REMARKS
CAPE GIRARDEAU NOT AVBL
FARMINGTON     MOSUNNY   50  35  56 S15       29.76F
POPLAR BLUFF   SUNNY     51  41  68 SE13      29.81F
WEST PLAINS    SUNNY     56  37  49 SE20G26   29.70F

$$



USA.gov is the U.S. government's official web portal to all federal, state and local government web resources and services.